Weather History for Ithaca, NY

Change the Weather History Date:

Saturday, October 18, 2014

  Actual Average Record
Temperature  
Mean Temperature 51 °F -  
Max Temperature 59 °F 57 °F 82 °F (1938)
Min Temperature 41 °F 39 °F 22 °F (1978)
Degree Days  
Heating Degree Days 14    
Growing Degree Days 1 (Base 50)    
Moisture  
Dew Point 48 °F    
Average Humidity 88    
Maximum Humidity 100    
Minimum Humidity 64    
Precipitation  
Precipitation 0.42 in - - ()
Sea Level Pressure  
Sea Level Pressure 29.66 in    
Wind  
Wind Speed 6 mph (WNW)    
Max Wind Speed 17 mph    
Max Gust Speed 24 mph    
Visibility 8 miles    
Events Rain    
Averages and records for this station are not official NWS values.
T = Trace of Precipitation, MM = Missing Value Source: NWS Daily Summary

Daily Weather History Graph

Daily Weather History Graph

Search for Another Location

Airport:

Trip Planner

Search our weather history database for the weather conditions in past years. The results will help you decide how hot, cold, wet, or windy it might be!

Date:

Astronomy

Oct. 18, 2014 Rise Set
Actual Time 7:22 AM EDT 6:18 PM EDT
Civil Twilight 6:53 AM EDT 6:47 PM EDT
Nautical Twilight 6:21 AM EDT 7:20 PM EDT
Astronomical Twilight 5:48 AM EDT 7:52 PM EDT
Moon 2:12 AM EDT (10/18) 3:43 PM EDT (10/18)
Length of Visible Light 11h 53m
Length of Day
10h 56m
Waning Crescent, 24% of the Moon is Illuminated
Oct 18
Waning Crescent
Oct 23
New
Oct 30
First Quarter
Nov 6
Full
Nov 14
Last Quarter

Hourly Weather History & Observations

Time (EDT) Temp. Windchill Dew Point Humidity Pressure Visibility Wind Dir Wind Speed Gust Speed Precip Events Conditions
12:56 AM 59.0 °F - 48.9 °F 69% 29.60 in 10.0 mi WNW 3.5 mph - N/A   Overcast
1:56 AM 56.8 °F - 50.9 °F 80% 29.59 in 10.0 mi Calm Calm - N/A   Overcast
2:56 AM 56.8 °F - 50.0 °F 78% 29.57 in 10.0 mi Calm Calm - N/A   Overcast
3:56 AM 55.9 °F - 50.9 °F 83% 29.55 in 10.0 mi Calm Calm - N/A   Overcast
4:49 AM 55.4 °F - 53.6 °F 94% 29.56 in 10.0 mi NW 5.8 mph - 0.00 in Rain Light Rain
4:56 AM 54.9 °F - 52.0 °F 90% 29.56 in 10.0 mi NW 4.6 mph - 0.00 in Rain Light Rain
5:11 AM 55.4 °F - 53.6 °F 94% 29.56 in 5.0 mi Calm Calm - 0.09 in Rain Rain
5:56 AM 54.0 °F - 52.9 °F 96% 29.56 in 10.0 mi Calm Calm - 0.10 in   Overcast
6:33 AM 55.4 °F - 53.6 °F 94% 29.57 in 6.0 mi SW 8.1 mph - 0.14 in Rain Rain
6:56 AM 54.0 °F - 52.9 °F 96% 29.56 in 7.0 mi SSW 4.6 mph - 0.20 in Rain Light Rain
7:56 AM 54.0 °F - 52.0 °F 93% 29.57 in 10.0 mi SW 6.9 mph - 0.00 in   Overcast
8:56 AM 54.0 °F - 52.0 °F 93% 29.59 in 10.0 mi SW 5.8 mph - 0.00 in Rain Light Rain
9:56 AM 54.0 °F - 52.0 °F 93% 29.61 in 10.0 mi West 5.8 mph - 0.03 in Rain Light Rain
10:56 AM 54.0 °F - 50.9 °F 89% 29.62 in 10.0 mi West 4.6 mph - 0.00 in   Overcast
11:56 AM 52.9 °F - 47.8 °F 83% 29.64 in 10.0 mi West 8.1 mph - 0.00 in   Overcast
12:56 PM 54.9 °F - 43.9 °F 66% 29.64 in 10.0 mi WNW 12.7 mph - N/A   Overcast
1:56 PM 54.9 °F - 43.0 °F 64% 29.65 in 10.0 mi West 16.1 mph 19.6 mph N/A   Overcast
2:56 PM 52.0 °F - 45.9 °F 80% 29.66 in 10.0 mi WNW 12.7 mph - 0.00 in Rain Light Rain
3:56 PM 50.0 °F - 46.9 °F 89% 29.69 in 10.0 mi NW 10.4 mph - 0.01 in Rain Light Rain
4:56 PM 50.0 °F - 46.9 °F 89% 29.70 in 10.0 mi NW 16.1 mph 21.9 mph 0.02 in   Overcast
5:56 PM 47.8 °F - 45.9 °F 93% 29.73 in 4.0 mi WNW 15.0 mph 24.2 mph 0.01 in   Overcast
6:56 PM 47.8 °F - 43.9 °F 86% 29.75 in 7.0 mi NW 17.3 mph 23.0 mph N/A   Overcast
7:56 PM 46.9 °F - 45.0 °F 93% 29.78 in 7.0 mi NNW 12.7 mph 17.3 mph N/A   Overcast
8:56 PM 45.9 °F 39.1 °F 43.9 °F 93% 29.81 in 4.0 mi NW 16.1 mph - 0.01 in   Overcast
9:56 PM 45.0 °F 38.5 °F 43.9 °F 96% 29.82 in 3.0 mi NNW 13.8 mph 20.7 mph 0.03 in Rain Rain
10:03 PM 44.6 °F 38.4 °F 44.6 °F 100% 29.81 in 4.0 mi NNW 12.7 mph - 0.00 in Rain Light Rain
10:20 PM 44.6 °F 37.4 °F 42.8 °F 93% 29.81 in 10.0 mi NW 16.1 mph - 0.00 in Rain Light Rain
10:56 PM 43.9 °F 37.5 °F 41.9 °F 93% 29.83 in 10.0 mi NNW 12.7 mph - 0.00 in Rain Light Rain
11:56 PM 41.9 °F 34.3 °F 41.0 °F 97% 29.85 in 3.0 mi NNW 15.0 mph 18.4 mph 0.01 in Rain Light Rain